Time,TemperatureF,DewpointF,PressureIn,WindDirection,WindDirectionDegrees,WindSpeedMPH,WindSpeedGustMPH,Humidity,HourlyPrecipIn,Conditions,Clouds,dailyrainin,SoftwareType,DateUTC
2013-10-24 00:01:00,43.0,35.3,27.34,North,0,1.2,1.6,74,0.00,CLR,,0.00,WeatherDisplay:10.37,2013-10-24 05:01:00,
2013-10-24 00:06:00,42.6,35.2,27.34,North,0,2.3,2.3,75,0.00,CLR,,0.00,WeatherDisplay:10.37,2013-10-24 05:06:00,
2013-10-24 00:11:00,42.4,35.4,27.34,NW,315,1.2,1.2,76,0.00,CLR,,0.00,WeatherDisplay:10.37,2013-10-24 05:11:00,
2013-10-24 00:16:00,42.1,35.4,27.34,NW,315,1.2,1.6,77,0.00,CLR,,0.00,WeatherDisplay:10.37,2013-10-24 05:16:00,
2013-10-24 00:21:00,41.7,35.0,27.34,NW,315,2.3,2.3,77,0.00,CLR,,0.00,WeatherDisplay:10.37,2013-10-24 05:21:00,
2013-10-24 00:26:00,41.2,34.5,27.34,NW,315,0.0,0.0,77,0.00,CLR,,0.00,WeatherDisplay:10.37,2013-10-24 05:26:00,
2013-10-24 00:31:00,41.0,34.3,27.34,SW,225,2.3,2.3,77,0.00,CLR,,0.00,WeatherDisplay:10.37,2013-10-24 05:31:00,
2013-10-24 00:37:00,41.0,34.3,27.35,SW,225,0.0,0.0,77,0.00,CLR,,0.00,WeatherDisplay:10.37,2013-10-24 05:37:00,
2013-10-24 00:42:00,40.8,34.2,27.35,North,0,0.0,0.0,77,0.00,CLR,,0.00,WeatherDisplay:10.37,2013-10-24 05:42:00,
2013-10-24 00:47:00,40.5,33.8,27.35,North,0,0.0,0.0,77,0.00,CLR,,0.00,WeatherDisplay:10.37,2013-10-24 05:47:00,
2013-10-24 00:52:00,40.5,33.8,27.35,West,270,1.2,0.0,77,0.00,CLR,,0.00,WeatherDisplay:10.37,2013-10-24 05:52:00,
2013-10-24 00:57:00,40.3,33.6,27.35,North,0,0.0,0.0,77,0.00,CLR,,0.00,WeatherDisplay:10.37,2013-10-24 05:57:00,
2013-10-24 01:02:00,40.1,33.5,27.35,North,0,0.0,0.0,77,0.00,CLR,,0.00,WeatherDisplay:10.37,2013-10-24 06:02:00,
2013-10-24 01:07:00,40.1,33.5,27.35,North,0,0.0,0.0,77,0.00,CLR,,0.00,WeatherDisplay:10.37,2013-10-24 06:07:00,
2013-10-24 01:12:00,39.6,33.3,27.35,North,0,0.0,0.7,78,0.00,CLR,,0.00,WeatherDisplay:10.37,2013-10-24 06:12:00,
2013-10-24 01:17:00,39.2,32.9,27.35,NW,315,2.3,2.3,78,0.00,CLR,,0.00,WeatherDisplay:10.37,2013-10-24 06:17:00,
2013-10-24 01:22:00,38.8,33.2,27.35,SW,225,1.2,1.2,80,0.00,CLR,,0.00,WeatherDisplay:10.37,2013-10-24 06:22:00,
2013-10-24 01:27:00,38.8,33.5,27.36,SW,225,0.0,0.0,81,0.00,CLR,,0.00,WeatherDisplay:10.37,2013-10-24 06:27:00,
2013-10-24 01:32:00,38.7,33.0,27.36,North,0,1.2,0.0,80,0.00,CLR,,0.00,WeatherDisplay:10.37,2013-10-24 06:32:00,
2013-10-24 01:37:00,38.5,32.8,27.36,West,270,0.0,0.0,80,0.00,CLR,,0.00,WeatherDisplay:10.37,2013-10-24 06:37:00,
2013-10-24 01:42:00,38.3,32.7,27.36,North,0,1.2,0.0,80,0.00,CLR,,0.00,WeatherDisplay:10.37,2013-10-24 06:42:00,
2013-10-24 01:47:00,37.9,32.6,27.36,NW,315,1.2,0.0,81,0.00,CLR,,0.00,WeatherDisplay:10.37,2013-10-24 06:47:00,
2013-10-24 01:52:00,37.6,32.9,27.36,NW,315,1.2,0.0,83,0.00,CLR,,0.00,WeatherDisplay:10.37,2013-10-24 06:52:00,
2013-10-24 01:57:00,37.4,32.7,27.36,North,0,1.2,1.2,83,0.00,CLR,,0.00,WeatherDisplay:10.37,2013-10-24 06:57:00,
2013-10-24 02:02:00,37.0,31.1,27.37,NW,315,1.2,0.0,79,0.00,CLR,,0.00,WeatherDisplay:10.37,2013-10-24 07:02:00,
2013-10-24 02:07:00,36.9,31.3,27.37,NW,315,0.0,0.0,80,0.00,CLR,,0.00,WeatherDisplay:10.37,2013-10-24 07:07:00,
2013-10-24 02:12:00,37.0,31.4,27.36,NW,315,0.0,0.0,80,0.00,CLR,,0.00,WeatherDisplay:10.37,2013-10-24 07:12:00,
2013-10-24 02:17:00,36.9,31.6,27.37,NW,315,0.0,0.0,81,0.00,CLR,,0.00,WeatherDisplay:10.37,2013-10-24 07:17:00,
2013-10-24 02:22:00,37.0,31.8,27.37,NW,315,0.0,0.0,81,0.00,CLR,,0.00,WeatherDisplay:10.37,2013-10-24 07:22:00,
2013-10-24 02:27:00,36.9,31.3,27.37,North,0,1.2,0.0,80,0.00,CLR,,0.00,WeatherDisplay:10.37,2013-10-24 07:27:00,
2013-10-24 02:32:00,36.7,31.1,27.37,North,0,0.0,0.0,80,0.00,CLR,,0.00,WeatherDisplay:10.37,2013-10-24 07:32:00,
2013-10-24 02:37:00,36.3,30.7,27.37,NW,315,3.5,3.5,80,0.00,CLR,,0.00,WeatherDisplay:10.37,2013-10-24 07:37:00,
2013-10-24 02:42:00,35.8,30.2,27.37,NW,315,1.2,0.0,80,0.00,CLR,,0.00,WeatherDisplay:10.37,2013-10-24 07:42:00,
2013-10-24 02:47:00,35.6,30.3,27.37,NW,315,0.0,0.0,81,0.00,CLR,,0.00,WeatherDisplay:10.37,2013-10-24 07:47:00,
2013-10-24 02:52:00,35.6,30.3,27.37,NW,315,0.0,0.0,81,0.00,CLR,,0.00,WeatherDisplay:10.37,2013-10-24 07:52:00,
2013-10-24 02:57:00,35.6,30.3,27.37,NW,315,0.0,0.0,81,0.00,CLR,,0.00,WeatherDisplay:10.37,2013-10-24 07:57:00,
2013-10-24 03:02:00,35.6,30.3,27.37,NW,315,0.0,0.0,81,0.00,CLR,,0.00,WeatherDisplay:10.37,2013-10-24 08:02:00,
2013-10-24 03:07:00,35.6,30.3,27.38,NW,315,0.0,0.0,81,0.00,CLR,,0.00,WeatherDisplay:10.37,2013-10-24 08:07:00,
2013-10-24 03:12:00,35.6,30.0,27.38,NW,315,0.0,0.0,80,0.00,CLR,,0.00,WeatherDisplay:10.37,2013-10-24 08:12:00,
2013-10-24 03:17:00,35.2,30.3,27.38,NW,315,2.3,2.3,82,0.00,CLR,,0.00,WeatherDisplay:10.37,2013-10-24 08:17:00,
2013-10-24 03:22:00,34.7,29.8,27.38,NW,315,1.6,0.0,82,0.00,CLR,,0.00,WeatherDisplay:10.37,2013-10-24 08:22:00,
2013-10-24 03:27:00,34.5,29.6,27.38,NW,315,1.2,0.0,82,0.00,CLR,,0.00,WeatherDisplay:10.37,2013-10-24 08:27:00,
2013-10-24 03:32:00,34.3,29.7,27.38,NW,315,1.2,1.2,83,0.00,CLR,,0.00,WeatherDisplay:10.37,2013-10-24 08:32:00,
2013-10-24 03:37:00,34.2,29.5,27.38,NW,315,1.2,1.2,83,0.00,CLR,,0.00,WeatherDisplay:10.37,2013-10-24 08:37:00,
2013-10-24 03:42:00,34.0,29.4,27.38,NW,315,1.2,1.2,83,0.00,CLR,,0.00,WeatherDisplay:10.37,2013-10-24 08:42:00,
2013-10-24 03:47:00,33.8,29.5,27.38,NW,315,1.2,1.2,84,0.00,CLR,,0.00,WeatherDisplay:10.37,2013-10-24 08:47:00,
2013-10-24 03:52:00,33.6,29.6,27.38,NW,315,1.2,0.0,85,0.00,CLR,,0.00,WeatherDisplay:10.37,2013-10-24 08:52:00,
2013-10-24 03:57:00,33.4,29.7,27.39,NW,315,1.2,0.0,86,0.00,CLR,,0.00,WeatherDisplay:10.37,2013-10-24 08:57:00,
2013-10-24 04:02:00,33.6,29.9,27.38,NW,315,1.2,0.0,86,0.00,CLR,,0.00,WeatherDisplay:10.37,2013-10-24 09:02:00,
2013-10-24 04:07:00,33.6,29.9,27.39,NW,315,0.0,0.0,86,0.00,CLR,,0.00,WeatherDisplay:10.37,2013-10-24 09:07:00,
2013-10-24 04:12:00,33.6,29.9,27.38,NW,315,1.2,0.0,86,0.00,CLR,,0.00,WeatherDisplay:10.37,2013-10-24 09:12:00,
2013-10-24 04:17:00,33.4,30.0,27.38,NW,315,1.2,0.0,87,0.00,CLR,,0.00,WeatherDisplay:10.37,2013-10-24 09:17:00,
2013-10-24 04:22:00,33.4,30.0,27.38,NW,315,0.0,0.0,87,0.00,CLR,,0.00,WeatherDisplay:10.37,2013-10-24 09:22:00,
2013-10-24 04:27:00,33.4,29.7,27.38,NW,315,0.0,0.0,86,0.00,CLR,,0.00,WeatherDisplay:10.37,2013-10-24 09:27:00,
2013-10-24 04:32:00,33.3,29.5,27.38,NW,315,0.0,0.0,86,0.00,CLR,,0.00,WeatherDisplay:10.37,2013-10-24 09:32:00,
2013-10-24 04:37:00,33.1,29.3,27.39,North,0,1.2,0.0,86,0.00,CLR,,0.00,WeatherDisplay:10.37,2013-10-24 09:37:00,
2013-10-24 04:42:00,32.9,29.2,27.39,North,0,1.2,1.6,86,0.00,CLR,,0.00,WeatherDisplay:10.37,2013-10-24 09:42:00,
2013-10-24 04:47:00,32.5,28.8,27.39,NW,315,1.2,1.2,86,0.00,CLR,,0.00,WeatherDisplay:10.37,2013-10-24 09:47:00,
2013-10-24 04:52:00,32.2,28.5,27.39,NW,315,1.2,1.2,86,0.00,CLR,,0.00,WeatherDisplay:10.37,2013-10-24 09:52:00,
2013-10-24 04:57:00,32.2,28.5,27.39,NW,315,1.2,0.0,86,0.00,CLR,,0.00,WeatherDisplay:10.37,2013-10-24 09:57:00,
2013-10-24 05:02:00,32.2,28.5,27.39,North,0,1.2,0.0,86,0.00,CLR,,0.00,WeatherDisplay:10.37,2013-10-24 10:02:00,
2013-10-24 05:07:00,32.2,28.7,27.39,NW,315,1.2,0.0,87,0.00,CLR,,0.00,WeatherDisplay:10.37,2013-10-24 10:07:00,
2013-10-24 05:12:00,32.4,28.9,27.39,NW,315,1.2,1.2,87,0.00,CLR,,0.00,WeatherDisplay:10.37,2013-10-24 10:12:00,
2013-10-24 05:17:00,32.4,28.9,27.39,NW,315,1.2,1.2,87,0.00,CLR,,0.00,WeatherDisplay:10.37,2013-10-24 10:17:00,
2013-10-24 05:22:00,32.2,28.7,27.39,NW,315,1.2,0.0,87,0.00,CLR,,0.00,WeatherDisplay:10.37,2013-10-24 10:22:00,
2013-10-24 05:27:00,32.4,29.2,27.39,NW,315,1.2,1.2,88,0.00,CLR,,0.00,WeatherDisplay:10.37,2013-10-24 10:27:00,
2013-10-24 05:32:00,32.4,29.2,27.39,NW,315,1.2,0.0,88,0.00,CLR,,0.00,WeatherDisplay:10.37,2013-10-24 10:32:00,
2013-10-24 05:37:00,32.4,29.2,27.39,NW,315,2.3,2.3,88,0.00,CLR,,0.00,WeatherDisplay:10.37,2013-10-24 10:37:00,
2013-10-24 05:42:00,32.4,29.2,27.40,NW,315,1.2,0.0,88,0.00,CLR,,0.00,WeatherDisplay:10.37,2013-10-24 10:42:00,
2013-10-24 05:47:00,32.5,29.4,27.39,NW,315,1.2,0.0,88,0.00,CLR,,0.00,WeatherDisplay:10.37,2013-10-24 10:47:00,
2013-10-24 05:53:00,32.7,29.6,27.39,North,0,1.2,0.0,88,0.00,CLR,,0.00,WeatherDisplay:10.37,2013-10-24 10:53:00,
2013-10-24 05:58:00,32.7,29.6,27.39,North,0,1.2,1.2,88,0.00,CLR,,0.00,WeatherDisplay:10.37,2013-10-24 10:58:00,
2013-10-24 06:03:00,32.7,29.6,27.40,NW,315,1.2,0.0,88,0.00,CLR,,0.00,WeatherDisplay:10.37,2013-10-24 11:03:00,
2013-10-24 06:08:00,32.5,29.4,27.39,NW,315,2.3,2.3,88,0.00,CLR,,0.00,WeatherDisplay:10.37,2013-10-24 11:08:00,
2013-10-24 06:13:00,32.4,29.2,27.40,NW,315,1.2,0.0,88,0.00,CLR,,0.00,WeatherDisplay:10.37,2013-10-24 11:13:00,
2013-10-24 06:18:00,32.4,29.2,27.39,NW,315,0.0,0.0,88,0.00,CLR,,0.00,WeatherDisplay:10.37,2013-10-24 11:18:00,
2013-10-24 06:23:00,32.5,29.4,27.40,NW,315,0.0,0.0,88,0.00,CLR,,0.00,WeatherDisplay:10.37,2013-10-24 11:23:00,
2013-10-24 06:28:00,32.7,29.6,27.40,NW,315,0.0,0.0,88,0.00,CLR,,0.00,WeatherDisplay:10.37,2013-10-24 11:28:00,
2013-10-24 06:33:00,32.9,29.7,27.40,NW,315,0.0,0.0,88,0.00,CLR,,0.00,WeatherDisplay:10.37,2013-10-24 11:33:00,
2013-10-24 06:38:00,33.1,29.9,27.40,NW,315,1.2,0.0,88,0.00,CLR,,0.00,WeatherDisplay:10.37,2013-10-24 11:38:00,
2013-10-24 06:43:00,33.1,29.9,27.40,NW,315,1.2,1.2,88,0.00,CLR,,0.00,WeatherDisplay:10.37,2013-10-24 11:43:00,
2013-10-24 06:48:00,33.1,29.9,27.40,NW,315,3.5,3.5,88,0.00,CLR,,0.00,WeatherDisplay:10.37,2013-10-24 11:48:00,
2013-10-24 06:53:00,33.1,29.9,27.40,NW,315,2.3,2.3,88,0.00,CLR,,0.00,WeatherDisplay:10.37,2013-10-24 11:53:00,
2013-10-24 06:58:00,33.1,29.9,27.40,North,0,1.2,1.2,88,0.00,CLR,,0.00,WeatherDisplay:10.37,2013-10-24 11:58:00,
2013-10-24 07:03:00,33.1,29.9,27.41,NW,315,2.3,2.3,88,0.00,CLR,,0.00,WeatherDisplay:10.37,2013-10-24 12:03:00,
2013-10-24 07:08:00,33.1,29.9,27.40,NW,315,2.3,2.3,88,0.00,CLR,,0.00,WeatherDisplay:10.37,2013-10-24 12:08:00,
2013-10-24 07:13:00,33.1,29.9,27.41,NW,315,1.2,1.2,88,0.00,CLR,,0.00,WeatherDisplay:10.37,2013-10-24 12:13:00,
2013-10-24 07:18:00,33.3,30.1,27.41,NW,315,1.2,1.2,88,0.00,CLR,,0.00,WeatherDisplay:10.37,2013-10-24 12:18:00,
2013-10-24 07:23:00,33.3,30.1,27.41,NW,315,1.2,1.2,88,0.00,CLR,,0.00,WeatherDisplay:10.37,2013-10-24 12:23:00,
2013-10-24 07:28:00,33.4,30.5,27.41,NW,315,1.2,1.2,89,0.00,CLR,,0.00,WeatherDisplay:10.37,2013-10-24 12:28:00,
2013-10-24 07:33:00,33.4,30.5,27.41,NW,315,1.2,0.0,89,0.00,CLR,,0.00,WeatherDisplay:10.37,2013-10-24 12:33:00,
2013-10-24 07:38:00,33.4,30.5,27.41,NW,315,1.2,0.0,89,0.00,CLR,,0.00,WeatherDisplay:10.37,2013-10-24 12:38:00,
2013-10-24 07:43:00,33.6,30.7,27.42,NW,315,2.3,2.3,89,0.00,CLR,,0.00,WeatherDisplay:10.37,2013-10-24 12:43:00,
2013-10-24 07:48:00,33.6,30.7,27.42,East,90,1.2,0.0,89,0.00,CLR,,0.00,WeatherDisplay:10.37,2013-10-24 12:48:00,
2013-10-24 07:53:00,33.8,30.6,27.42,SW,225,0.0,0.0,88,0.00,CLR,,0.00,WeatherDisplay:10.37,2013-10-24 12:53:00,
2013-10-24 07:58:00,34.0,30.8,27.42,NW,315,1.2,0.0,88,0.00,CLR,,0.00,WeatherDisplay:10.37,2013-10-24 12:58:00,
2013-10-24 08:03:00,34.2,30.7,27.42,SW,225,1.2,1.2,87,0.00,CLR,,0.00,WeatherDisplay:10.37,2013-10-24 13:03:00,
2013-10-24 08:08:00,34.3,30.9,27.42,NW,315,1.2,0.0,87,0.00,CLR,,0.00,WeatherDisplay:10.37,2013-10-24 13:08:00,
2013-10-24 08:13:00,34.3,30.9,27.42,North,0,1.2,0.0,87,0.00,CLR,,0.00,WeatherDisplay:10.37,2013-10-24 13:13:00,
2013-10-24 08:18:00,34.5,31.0,27.42,North,0,1.2,0.0,87,0.00,CLR,,0.00,WeatherDisplay:10.37,2013-10-24 13:18:00,
2013-10-24 08:23:00,34.7,31.2,27.43,SW,225,1.2,0.0,87,0.00,CLR,,0.00,WeatherDisplay:10.37,2013-10-24 13:23:00,
2013-10-24 08:28:00,34.7,31.2,27.43,NW,315,0.0,0.0,87,0.00,CLR,,0.00,WeatherDisplay:10.37,2013-10-24 13:28:00,
2013-10-24 08:33:00,34.9,31.4,27.43,NW,315,0.0,0.0,87,0.00,CLR,,0.00,WeatherDisplay:10.37,2013-10-24 13:33:00,
2013-10-24 08:38:00,35.1,31.6,27.43,NW,315,0.0,0.0,87,0.00,CLR,,0.00,WeatherDisplay:10.37,2013-10-24 13:38:00,
2013-10-24 08:43:00,35.2,31.5,27.43,NW,315,0.0,0.0,86,0.00,CLR,,0.00,WeatherDisplay:10.37,2013-10-24 13:43:00,
2013-10-24 08:48:00,35.4,31.6,27.43,North,0,1.2,1.2,86,0.00,CLR,,0.00,WeatherDisplay:10.37,2013-10-24 13:48:00,
2013-10-24 08:53:00,35.4,31.6,27.43,NW,315,1.2,1.2,86,0.00,CLR,,0.00,WeatherDisplay:10.37,2013-10-24 13:53:00,
2013-10-24 08:58:00,35.2,31.5,27.44,NW,315,1.2,0.0,86,0.00,CLR,,0.00,WeatherDisplay:10.37,2013-10-24 13:58:00,
2013-10-24 09:03:00,35.2,31.5,27.44,North,0,1.2,0.0,86,0.00,CLR,,0.00,WeatherDisplay:10.37,2013-10-24 14:03:00,
2013-10-24 09:08:00,35.4,31.9,27.44,NW,315,1.2,1.6,87,0.00,CLR,,0.00,WeatherDisplay:10.37,2013-10-24 14:08:00,
2013-10-24 09:13:00,35.6,31.8,27.44,North,0,2.3,2.3,86,0.00,CLR,,0.00,WeatherDisplay:10.37,2013-10-24 14:13:00,
2013-10-24 09:18:00,35.6,31.8,27.44,North,0,2.3,2.3,86,0.00,CLR,,0.00,WeatherDisplay:10.37,2013-10-24 14:18:00,
2013-10-24 09:23:00,35.8,32.0,27.44,NW,315,0.0,0.0,86,0.00,CLR,,0.00,WeatherDisplay:10.37,2013-10-24 14:23:00,
2013-10-24 09:28:00,36.1,32.4,27.45,NW,315,0.0,0.0,86,0.00,CLR,,0.00,WeatherDisplay:10.37,2013-10-24 14:28:00,
2013-10-24 09:33:00,36.5,32.7,27.45,SW,225,1.2,1.2,86,0.00,CLR,,0.00,WeatherDisplay:10.37,2013-10-24 14:33:00,
2013-10-24 09:38:00,36.9,33.1,27.45,SW,225,0.0,0.0,86,0.00,CLR,,0.00,WeatherDisplay:10.37,2013-10-24 14:38:00,
2013-10-24 09:43:00,37.2,33.4,27.45,SW,225,1.2,1.2,86,0.00,CLR,,0.00,WeatherDisplay:10.37,2013-10-24 14:43:00,
2013-10-24 09:48:00,37.8,35.1,27.45,SW,225,1.2,0.0,90,0.00,CLR,,0.00,WeatherDisplay:10.37,2013-10-24 14:48:00,
2013-10-24 09:53:00,37.9,35.0,27.45,SW,225,1.2,0.0,89,0.00,CLR,,0.00,WeatherDisplay:10.37,2013-10-24 14:53:00,
2013-10-24 09:58:00,38.3,35.3,27.46,SE,135,1.2,0.0,89,0.00,CLR,,0.00,WeatherDisplay:10.37,2013-10-24 14:58:00,
2013-10-24 10:03:00,38.7,35.7,27.46,SE,135,2.3,2.3,89,0.00,CLR,,0.00,WeatherDisplay:10.37,2013-10-24 15:03:00,
2013-10-24 10:08:00,39.0,36.1,27.46,SE,135,2.3,2.3,89,0.00,CLR,,0.00,WeatherDisplay:10.37,2013-10-24 15:08:00,
2013-10-24 10:13:00,39.4,36.1,27.46,SE,135,1.2,1.2,88,0.00,CLR,,0.00,WeatherDisplay:10.37,2013-10-24 15:13:00,
2013-10-24 10:18:00,39.9,36.7,27.46,SE,135,1.2,0.0,88,0.00,CLR,,0.00,WeatherDisplay:10.37,2013-10-24 15:18:00,
2013-10-24 10:23:00,40.5,36.9,27.46,NE,45,0.0,0.0,87,0.00,CLR,,0.00,WeatherDisplay:10.37,2013-10-24 15:23:00,
2013-10-24 10:28:00,41.0,37.1,27.46,South,180,1.2,0.0,86,0.00,CLR,,0.00,WeatherDisplay:10.37,2013-10-24 15:28:00,
2013-10-24 10:33:00,41.2,37.3,27.46,North,0,1.2,0.0,86,0.00,CLR,,0.00,WeatherDisplay:10.37,2013-10-24 15:33:00,
2013-10-24 10:38:00,41.4,37.5,27.46,North,0,0.0,0.0,86,0.00,CLR,,0.00,WeatherDisplay:10.37,2013-10-24 15:38:00,
2013-10-24 10:43:00,41.5,37.7,27.46,SE,135,0.0,0.7,86,0.00,CLR,,0.00,WeatherDisplay:10.37,2013-10-24 15:43:00,
2013-10-24 10:48:00,41.9,38.0,27.46,SE,135,1.2,0.0,86,0.00,CLR,,0.00,WeatherDisplay:10.37,2013-10-24 15:48:00,
2013-10-24 10:53:00,42.3,38.1,27.46,North,0,1.2,0.0,85,0.00,CLR,,0.00,WeatherDisplay:10.37,2013-10-24 15:53:00,
2013-10-24 10:58:00,42.6,38.4,27.46,SW,225,2.3,0.0,85,0.00,CLR,,0.00,WeatherDisplay:10.37,2013-10-24 15:58:00,
2013-10-24 11:03:00,42.6,38.4,27.46,NE,45,1.2,0.0,85,0.00,CLR,,0.00,WeatherDisplay:10.37,2013-10-24 16:03:00,
2013-10-24 11:08:00,43.2,38.7,27.46,East,90,1.2,0.0,84,0.00,CLR,,0.00,WeatherDisplay:10.37,2013-10-24 16:08:00,
2013-10-24 11:14:00,43.5,39.0,27.47,SSE,158,5.8,5.8,84,0.00,CLR,,0.00,WeatherDisplay:10.37,2013-10-24 16:14:00,
2013-10-24 11:19:00,43.9,39.4,27.47,SE,135,3.5,3.5,84,0.00,CLR,,0.00,WeatherDisplay:10.37,2013-10-24 16:19:00,
2013-10-24 11:24:00,44.1,39.5,27.47,SE,135,8.1,8.1,84,0.00,CLR,,0.00,WeatherDisplay:10.37,2013-10-24 16:24:00,
2013-10-24 11:29:00,44.1,39.2,27.46,SE,135,5.8,5.8,83,0.00,CLR,,0.00,WeatherDisplay:10.37,2013-10-24 16:29:00,
2013-10-24 11:34:00,44.1,39.2,27.46,SSE,158,4.6,4.6,83,0.00,CLR,,0.00,WeatherDisplay:10.37,2013-10-24 16:34:00,
2013-10-24 11:39:00,44.4,39.6,27.47,SSE,158,5.8,5.8,83,0.00,CLR,,0.00,WeatherDisplay:10.37,2013-10-24 16:39:00,
2013-10-24 11:44:00,44.4,39.6,27.46,South,180,8.1,8.1,83,0.00,CLR,,0.00,WeatherDisplay:10.37,2013-10-24 16:44:00,
2013-10-24 11:49:00,44.4,39.6,27.47,SE,135,5.8,5.8,83,0.00,CLR,,0.00,WeatherDisplay:10.37,2013-10-24 16:49:00,
2013-10-24 11:54:00,44.6,39.1,27.46,South,180,6.9,6.9,81,0.00,CLR,,0.00,WeatherDisplay:10.37,2013-10-24 16:54:00,
2013-10-24 11:59:00,44.6,39.4,27.46,South,180,5.8,5.8,82,0.00,CLR,,0.00,WeatherDisplay:10.37,2013-10-24 16:59:00,
2013-10-24 12:04:00,44.8,39.3,27.46,East,90,8.1,8.1,81,0.00,CLR,,0.00,WeatherDisplay:10.37,2013-10-24 17:04:00,
2013-10-24 12:09:00,45.0,39.5,27.46,South,180,5.8,5.8,81,0.00,CLR,,0.00,WeatherDisplay:10.37,2013-10-24 17:09:00,
2013-10-24 12:14:00,45.3,39.8,27.46,South,180,5.8,5.8,81,0.00,CLR,,0.00,WeatherDisplay:10.37,2013-10-24 17:14:00,
2013-10-24 12:19:00,45.3,39.5,27.46,SE,135,8.1,8.1,80,0.00,CLR,,0.00,WeatherDisplay:10.37,2013-10-24 17:19:00,
2013-10-24 12:24:00,45.5,39.7,27.46,SSE,158,6.9,6.9,80,0.00,CLR,,0.00,WeatherDisplay:10.37,2013-10-24 17:24:00,
2013-10-24 12:29:00,45.7,39.9,27.46,West,270,5.8,5.8,80,0.00,CLR,,0.00,WeatherDisplay:10.37,2013-10-24 17:29:00,
2013-10-24 12:34:00,45.9,40.0,27.46,SE,135,5.8,5.8,80,0.00,CLR,,0.00,WeatherDisplay:10.37,2013-10-24 17:34:00,
2013-10-24 12:39:00,46.2,40.1,27.46,SSE,158,5.8,5.8,79,0.00,CLR,,0.00,WeatherDisplay:10.37,2013-10-24 17:39:00,
2013-10-24 12:44:00,46.4,39.9,27.45,South,180,6.9,6.9,78,0.00,CLR,,0.00,WeatherDisplay:10.37,2013-10-24 17:44:00,
2013-10-24 12:49:00,46.8,40.3,27.46,South,180,4.6,4.6,78,0.00,CLR,,0.00,WeatherDisplay:10.37,2013-10-24 17:49:00,
2013-10-24 12:54:00,47.1,40.3,27.46,South,180,4.6,4.6,77,0.00,CLR,,0.00,WeatherDisplay:10.37,2013-10-24 17:54:00,
2013-10-24 12:59:00,47.1,39.9,27.46,SE,135,9.2,9.2,76,0.00,CLR,,0.00,WeatherDisplay:10.37,2013-10-24 17:59:00,
2013-10-24 13:04:00,47.1,39.9,27.46,SE,135,5.8,5.8,76,0.00,CLR,,0.00,WeatherDisplay:10.37,2013-10-24 18:04:00,
2013-10-24 13:09:00,47.3,40.1,27.45,South,180,5.8,5.8,76,0.00,CLR,,0.00,WeatherDisplay:10.37,2013-10-24 18:09:00,
2013-10-24 13:14:00,47.5,40.3,27.45,South,180,8.1,8.1,76,0.00,CLR,,0.00,WeatherDisplay:10.37,2013-10-24 18:14:00,
2013-10-24 13:19:00,47.7,40.5,27.45,South,180,4.6,4.6,76,0.00,CLR,,0.00,WeatherDisplay:10.37,2013-10-24 18:19:00,
2013-10-24 13:24:00,47.7,40.1,27.45,SE,135,4.6,4.6,75,0.00,CLR,,0.00,WeatherDisplay:10.37,2013-10-24 18:24:00,
2013-10-24 13:29:00,47.8,40.3,27.44,SE,135,4.6,4.6,75,0.00,CLR,,0.00,WeatherDisplay:10.37,2013-10-24 18:29:00,
2013-10-24 13:34:00,47.8,40.3,27.44,South,180,5.8,5.8,75,0.00,CLR,,0.00,WeatherDisplay:10.37,2013-10-24 18:34:00,
2013-10-24 13:39:00,47.8,40.3,27.44,South,180,5.8,5.8,75,0.00,CLR,,0.00,WeatherDisplay:10.37,2013-10-24 18:39:00,
2013-10-24 13:44:00,48.2,40.3,27.44,WSW,248,5.8,5.8,74,0.00,CLR,,0.00,WeatherDisplay:10.37,2013-10-24 18:44:00,
2013-10-24 13:49:00,48.6,40.6,27.44,East,90,5.8,5.8,74,0.00,CLR,,0.00,WeatherDisplay:10.37,2013-10-24 18:49:00,
2013-10-24 13:54:00,48.6,40.3,27.44,SSE,167,1.0,6.0,73,0.00,CLR,CLR,0.00,WeatherDisplay:10.37,2013-10-24 18:54:00,
2013-10-24 13:59:00,48.7,40.5,27.43,South,180,3.5,3.5,73,0.00,CLR,,0.00,WeatherDisplay:10.37,2013-10-24 18:59:00,
2013-10-24 14:04:00,48.9,40.3,27.43,South,180,6.9,6.9,72,0.00,CLR,,0.00,WeatherDisplay:10.37,2013-10-24 19:04:00,
2013-10-24 14:09:00,48.9,40.3,27.43,SSW,202,6.9,6.9,72,0.00,CLR,,0.00,WeatherDisplay:10.37,2013-10-24 19:09:00,
2013-10-24 14:14:00,48.9,39.9,27.43,South,169,5.0,7.0,71,0.00,CLR,CLR,0.00,WeatherDisplay:10.37,2013-10-24 19:14:00,
2013-10-24 14:19:00,48.9,39.9,27.43,SE,135,5.8,5.8,71,0.00,CLR,,0.00,WeatherDisplay:10.37,2013-10-24 19:19:00,
2013-10-24 14:24:00,49.1,40.1,27.43,South,173,2.0,6.0,71,0.00,CLR,CLR,0.00,WeatherDisplay:10.37,2013-10-24 19:24:00,
2013-10-24 14:30:00,49.4,40.4,27.42,South,180,2.0,5.0,71,0.00,CLR,CLR,0.00,WeatherDisplay:10.37,2013-10-24 19:30:00,
2013-10-24 14:35:00,49.5,40.1,27.42,South,180,3.5,3.5,70,0.00,CLR,,0.00,WeatherDisplay:10.37,2013-10-24 19:35:00,
2013-10-24 14:40:00,49.5,40.1,27.42,SE,135,5.8,5.8,70,0.00,CLR,,0.00,WeatherDisplay:10.37,2013-10-24 19:40:00,
2013-10-24 14:44:00,49.2,39.5,27.42,SSE,156,3.0,7.0,69,0.00,CLR,CLR,0.00,WeatherDisplay:10.37,2013-10-24 19:44:00,
2013-10-24 14:49:00,49.1,39.7,27.42,South,178,2.0,8.0,70,0.00,CLR,CLR,0.00,WeatherDisplay:10.37,2013-10-24 19:49:00,
2013-10-24 14:54:00,49.3,39.9,27.41,South,174,2.0,8.0,70,0.00,CLR,CLR,0.00,WeatherDisplay:10.37,2013-10-24 19:54:00,
2013-10-24 14:59:00,49.5,40.1,27.41,South,180,6.9,6.9,70,0.00,CLR,,0.00,WeatherDisplay:10.37,2013-10-24 19:59:00,
2013-10-24 15:04:00,49.5,40.1,27.41,South,179,2.0,3.0,70,0.00,CLR,CLR,0.00,WeatherDisplay:10.37,2013-10-24 20:04:00,
2013-10-24 15:09:00,49.8,40.1,27.41,SW,225,5.8,5.8,69,0.00,CLR,,0.00,WeatherDisplay:10.37,2013-10-24 20:09:00,
2013-10-24 15:14:00,50.0,39.8,27.41,SW,225,3.5,3.5,68,0.00,CLR,,0.00,WeatherDisplay:10.37,2013-10-24 20:14:00,
2013-10-24 15:19:00,50.0,39.8,27.40,NE,45,3.5,3.5,68,0.00,CLR,,0.00,WeatherDisplay:10.37,2013-10-24 20:19:00,
2013-10-24 15:24:00,50.0,39.5,27.40,SSE,152,3.0,6.0,67,0.00,CLR,CLR,0.00,WeatherDisplay:10.37,2013-10-24 20:24:00,
2013-10-24 15:29:00,50.0,39.5,27.40,SSW,202,3.5,3.5,67,0.00,CLR,,0.00,WeatherDisplay:10.37,2013-10-24 20:29:00,
2013-10-24 15:34:00,49.9,39.7,27.40,South,179,2.0,6.0,68,0.00,CLR,CLR,0.00,WeatherDisplay:10.37,2013-10-24 20:34:00,
2013-10-24 15:39:00,49.8,39.7,27.40,South,180,2.0,6.0,68,0.00,CLR,CLR,0.00,WeatherDisplay:10.37,2013-10-24 20:39:00,
2013-10-24 15:44:00,50.0,39.8,27.40,SSE,165,5.0,7.0,68,0.00,CLR,CLR,0.00,WeatherDisplay:10.37,2013-10-24 20:44:00,
2013-10-24 15:49:00,50.0,39.8,27.40,SE,135,5.8,5.8,68,0.00,CLR,,0.00,WeatherDisplay:10.37,2013-10-24 20:49:00,
2013-10-24 15:54:00,50.0,39.8,27.40,NE,45,5.8,5.8,68,0.00,CLR,,0.00,WeatherDisplay:10.37,2013-10-24 20:54:00,
2013-10-24 15:59:00,50.0,39.8,27.40,SW,225,8.1,8.1,68,0.00,CLR,,0.00,WeatherDisplay:10.37,2013-10-24 20:59:00,
2013-10-24 16:04:00,49.8,40.1,27.40,South,180,5.0,7.0,69,0.00,CLR,CLR,0.00,WeatherDisplay:10.37,2013-10-24 21:04:00,
2013-10-24 16:09:00,49.8,40.1,27.40,SE,135,8.1,8.1,69,0.00,CLR,,0.00,WeatherDisplay:10.37,2013-10-24 21:09:00,
2013-10-24 16:14:00,49.8,40.1,27.39,South,169,3.0,6.0,69,0.00,CLR,CLR,0.00,WeatherDisplay:10.37,2013-10-24 21:14:00,
2013-10-24 16:19:00,49.8,40.4,27.40,South,180,6.9,6.9,70,0.00,CLR,,0.00,WeatherDisplay:10.37,2013-10-24 21:19:00,
2013-10-24 16:24:00,50.0,40.2,27.39,South,180,5.8,5.8,69,0.00,CLR,,0.00,WeatherDisplay:10.37,2013-10-24 21:24:00,
2013-10-24 16:29:00,49.9,39.8,27.39,SSE,166,5.0,7.0,68,0.00,CLR,CLR,0.00,WeatherDisplay:10.37,2013-10-24 21:29:00,
2013-10-24 16:35:00,50.0,39.8,27.39,SSE,164,3.0,6.0,68,0.00,CLR,CLR,0.00,WeatherDisplay:10.37,2013-10-24 21:35:00,
2013-10-24 16:39:00,50.0,39.8,27.39,SSE,167,2.0,8.0,68,0.00,CLR,CLR,0.00,WeatherDisplay:10.37,2013-10-24 21:39:00,
2013-10-24 16:44:00,50.2,40.0,27.39,South,180,2.0,6.0,68,0.00,CLR,CLR,0.00,WeatherDisplay:10.37,2013-10-24 21:44:00,
2013-10-24 16:49:00,50.2,40.0,27.39,SE,135,8.1,8.1,68,0.00,CLR,,0.00,WeatherDisplay:10.37,2013-10-24 21:49:00,
2013-10-24 16:54:00,50.4,40.2,27.39,SSE,161,3.0,7.0,68,0.00,CLR,CLR,0.00,WeatherDisplay:10.37,2013-10-24 21:54:00,
2013-10-24 16:59:00,50.4,40.2,27.38,East,90,3.5,3.5,68,0.00,CLR,,0.00,WeatherDisplay:10.37,2013-10-24 21:59:00,
2013-10-24 17:04:00,50.4,40.2,27.38,East,90,3.5,3.5,68,0.00,CLR,,0.00,WeatherDisplay:10.37,2013-10-24 22:04:00,
2013-10-24 17:09:00,50.9,40.7,27.38,ESE,109,3.0,8.0,68,0.00,CLR,CLR,0.00,WeatherDisplay:10.37,2013-10-24 22:09:00,
2013-10-24 17:14:00,51.3,40.3,27.38,SE,146,5.0,9.0,66,0.00,CLR,CLR,0.00,WeatherDisplay:10.37,2013-10-24 22:14:00,
2013-10-24 17:19:00,51.1,40.1,27.38,SSE,158,4.6,4.6,66,0.00,CLR,,0.00,WeatherDisplay:10.37,2013-10-24 22:19:00,
2013-10-24 17:24:00,50.6,39.6,27.38,SSE,165,6.0,9.0,66,0.00,CLR,CLR,0.00,WeatherDisplay:10.37,2013-10-24 22:24:00,
2013-10-24 17:29:00,50.2,39.6,27.38,SSE,153,1.0,6.0,67,0.00,CLR,CLR,0.00,WeatherDisplay:10.37,2013-10-24 22:29:00,
2013-10-24 17:34:00,50.0,39.5,27.38,South,171,3.0,7.0,67,0.00,CLR,CLR,0.00,WeatherDisplay:10.37,2013-10-24 22:34:00,
2013-10-24 17:39:00,50.0,39.5,27.38,SSE,152,5.0,7.0,67,0.00,CLR,CLR,0.00,WeatherDisplay:10.37,2013-10-24 22:39:00,
2013-10-24 17:44:00,49.8,40.1,27.38,SSE,151,5.0,8.0,69,0.00,CLR,CLR,0.00,WeatherDisplay:10.37,2013-10-24 22:44:00,
2013-10-24 17:49:00,49.6,39.9,27.38,South,180,5.8,5.8,69,0.00,CLR,,0.00,WeatherDisplay:10.37,2013-10-24 22:49:00,
2013-10-24 17:54:00,49.5,39.7,27.38,South,171,3.0,7.0,69,0.00,CLR,CLR,0.00,WeatherDisplay:10.37,2013-10-24 22:54:00,
2013-10-24 17:59:00,49.3,39.5,27.38,SW,225,4.6,4.6,69,0.00,CLR,,0.00,WeatherDisplay:10.37,2013-10-24 22:59:00,
2013-10-24 18:04:00,49.1,39.4,27.38,South,180,4.6,4.6,69,0.00,CLR,,0.00,WeatherDisplay:10.37,2013-10-24 23:04:00,
2013-10-24 18:09:00,49.0,39.6,27.38,South,175,3.0,8.0,70,0.00,CLR,CLR,0.00,WeatherDisplay:10.37,2013-10-24 23:09:00,
2013-10-24 18:14:00,48.7,39.4,27.38,SE,135,3.5,3.5,70,0.00,CLR,,0.00,WeatherDisplay:10.37,2013-10-24 23:14:00,
2013-10-24 18:19:00,48.6,39.2,27.38,South,180,4.6,4.6,70,0.00,CLR,,0.00,WeatherDisplay:10.37,2013-10-24 23:19:00,
2013-10-24 18:24:00,48.2,38.9,27.38,South,175,2.0,3.0,70,0.00,CLR,CLR,0.00,WeatherDisplay:10.37,2013-10-24 23:24:00,
2013-10-24 18:29:00,47.8,39.2,27.38,SE,135,3.5,3.5,72,0.00,CLR,,0.00,WeatherDisplay:10.37,2013-10-24 23:29:00,
2013-10-24 18:34:00,47.7,39.1,27.38,SSE,153,2.0,5.0,72,0.00,CLR,CLR,0.00,WeatherDisplay:10.37,2013-10-24 23:34:00,
2013-10-24 18:39:00,47.3,39.1,27.38,SSE,157,2.0,3.0,73,0.00,CLR,CLR,0.00,WeatherDisplay:10.37,2013-10-24 23:39:00,
2013-10-24 18:44:00,46.9,38.7,27.38,NE,45,1.2,0.0,73,0.00,CLR,,0.00,WeatherDisplay:10.37,2013-10-24 23:44:00,
2013-10-24 18:49:00,46.6,38.4,27.38,SSE,153,1.0,2.0,73,0.00,CLR,CLR,0.00,WeatherDisplay:10.37,2013-10-24 23:49:00,
2013-10-24 18:54:00,46.2,38.0,27.38,West,270,2.3,2.3,73,0.00,CLR,,0.00,WeatherDisplay:10.37,2013-10-24 23:54:00,
2013-10-24 18:59:00,45.9,38.0,27.38,South,170,1.0,3.0,74,0.00,CLR,CLR,0.00,WeatherDisplay:10.37,2013-10-24 23:59:00,
2013-10-24 19:04:00,45.9,38.0,27.38,SE,135,1.2,1.2,74,0.00,CLR,,0.00,WeatherDisplay:10.37,2013-10-25 00:04:00,
2013-10-24 19:09:00,45.1,37.3,27.39,NE,45,1.2,0.0,74,0.00,CLR,,0.00,WeatherDisplay:10.37,2013-10-25 00:09:00,
2013-10-24 19:14:00,44.8,37.0,27.39,East,90,1.2,0.0,74,0.00,CLR,,0.00,WeatherDisplay:10.37,2013-10-25 00:14:00,
2013-10-24 19:19:00,44.4,37.0,27.39,ENE,78,0.0,2.0,75,0.00,CLR,CLR,0.00,WeatherDisplay:10.37,2013-10-25 00:19:00,
2013-10-24 19:24:00,44.1,36.6,27.40,NE,45,1.2,0.0,75,0.00,CLR,,0.00,WeatherDisplay:10.37,2013-10-25 00:24:00,
2013-10-24 19:29:00,43.7,36.6,27.40,East,90,1.2,0.0,76,0.00,CLR,,0.00,WeatherDisplay:10.37,2013-10-25 00:29:00,
2013-10-24 19:34:00,43.3,36.3,27.39,ENE,78,1.0,2.0,76,0.00,CLR,CLR,0.00,WeatherDisplay:10.37,2013-10-25 00:34:00,
2013-10-24 19:39:00,42.8,36.1,27.40,East,90,1.2,0.0,77,0.00,CLR,,0.00,WeatherDisplay:10.37,2013-10-25 00:39:00,
2013-10-24 19:44:00,42.6,36.2,27.40,East,98,0.0,2.0,78,0.00,CLR,CLR,0.00,WeatherDisplay:10.37,2013-10-25 00:44:00,
2013-10-24 19:49:00,42.4,36.4,27.40,East,90,1.2,0.0,79,0.00,CLR,,0.00,WeatherDisplay:10.37,2013-10-25 00:49:00,
2013-10-24 19:54:00,42.1,36.0,27.40,East,90,0.0,1.0,79,0.00,CLR,CLR,0.00,WeatherDisplay:10.37,2013-10-25 00:54:00,
2013-10-24 19:59:00,41.9,35.9,27.40,East,90,0.0,0.0,79,0.00,CLR,,0.00,WeatherDisplay:10.37,2013-10-25 00:59:00,
2013-10-24 20:04:00,41.7,35.7,27.40,East,90,0.0,0.0,79,0.00,CLR,,0.00,WeatherDisplay:10.37,2013-10-25 01:04:00,
2013-10-24 20:09:00,41.5,35.5,27.40,East,90,0.0,0.0,79,0.00,CLR,,0.00,WeatherDisplay:10.37,2013-10-25 01:09:00,
2013-10-24 20:14:00,41.4,35.3,27.40,East,90,0.0,1.0,79,0.00,CLR,CLR,0.00,WeatherDisplay:10.37,2013-10-25 01:14:00,
2013-10-24 20:19:00,41.0,35.0,27.41,East,90,1.2,0.0,79,0.00,CLR,,0.00,WeatherDisplay:10.37,2013-10-25 01:19:00,
2013-10-24 20:24:00,40.8,35.4,27.41,East,90,0.0,0.0,81,0.00,CLR,,0.00,WeatherDisplay:10.37,2013-10-25 01:24:00,
2013-10-24 20:29:00,40.6,35.3,27.41,East,90,0.0,1.0,81,0.00,CLR,CLR,0.00,WeatherDisplay:10.37,2013-10-25 01:29:00,
2013-10-24 20:34:00,40.5,35.4,27.41,SE,135,1.2,0.0,82,0.00,CLR,,0.00,WeatherDisplay:10.37,2013-10-25 01:34:00,
2013-10-24 20:39:00,40.1,35.4,27.41,SE,135,1.2,1.2,83,0.00,CLR,,0.00,WeatherDisplay:10.37,2013-10-25 01:39:00,
2013-10-24 20:44:00,39.9,35.2,27.41,SSE,148,1.0,2.0,83,0.00,CLR,CLR,0.00,WeatherDisplay:10.37,2013-10-25 01:44:00,
2013-10-24 20:49:00,39.6,35.1,27.41,SSE,152,0.0,2.0,84,0.00,CLR,CLR,0.00,WeatherDisplay:10.37,2013-10-25 01:49:00,
2013-10-24 20:54:00,39.4,34.9,27.41,SE,135,0.0,2.0,84,0.00,CLR,CLR,0.00,WeatherDisplay:10.37,2013-10-25 01:54:00,
2013-10-24 20:59:00,39.0,34.9,27.41,SE,135,0.0,0.0,85,0.00,CLR,,0.00,WeatherDisplay:10.37,2013-10-25 01:59:00,
2013-10-24 21:04:00,39.0,34.9,27.41,SE,135,0.0,0.0,85,0.00,CLR,,0.00,WeatherDisplay:10.37,2013-10-25 02:04:00,
2013-10-24 21:09:00,38.5,34.4,27.41,SE,135,0.0,0.0,85,0.00,CLR,,0.00,WeatherDisplay:10.37,2013-10-25 02:09:00,
2013-10-24 21:14:00,38.1,34.0,27.41,SE,135,0.0,0.0,85,0.00,CLR,,0.00,WeatherDisplay:10.37,2013-10-25 02:14:00,
2013-10-24 21:19:00,37.9,33.8,27.41,SE,135,0.0,0.0,85,0.00,CLR,,0.00,WeatherDisplay:10.37,2013-10-25 02:19:00,
2013-10-24 21:25:00,37.9,33.8,27.42,SE,135,0.0,0.0,85,0.00,CLR,CLR,0.00,WeatherDisplay:10.37,2013-10-25 02:25:00,
2013-10-24 21:29:00,37.8,33.7,27.41,SE,135,0.0,0.0,85,0.00,CLR,CLR,0.00,WeatherDisplay:10.37,2013-10-25 02:29:00,
2013-10-24 21:34:00,37.4,33.6,27.41,SE,127,0.0,2.0,86,0.00,CLR,CLR,0.00,WeatherDisplay:10.37,2013-10-25 02:34:00,
2013-10-24 21:39:00,37.2,32.2,27.42,North,0,1.2,0.0,82,0.00,CLR,,0.00,WeatherDisplay:10.37,2013-10-25 02:39:00,
2013-10-24 21:44:00,37.0,32.1,27.42,West,270,1.2,0.0,82,0.00,CLR,,0.00,WeatherDisplay:10.37,2013-10-25 02:44:00,
2013-10-24 21:49:00,36.9,31.9,27.42,WSW,257,0.0,2.0,82,0.00,CLR,CLR,0.00,WeatherDisplay:10.37,2013-10-25 02:49:00,
2013-10-24 21:54:00,36.7,32.0,27.42,SW,225,1.0,2.0,83,0.00,CLR,CLR,0.00,WeatherDisplay:10.37,2013-10-25 02:54:00,
2013-10-24 21:59:00,36.5,31.8,27.42,NW,315,1.2,0.0,83,0.00,CLR,,0.00,WeatherDisplay:10.37,2013-10-25 02:59:00,
2013-10-24 22:04:00,36.5,31.8,27.42,WNW,289,0.0,0.0,83,0.00,CLR,CLR,0.00,WeatherDisplay:10.37,2013-10-25 03:04:00,
2013-10-24 22:09:00,36.3,31.9,27.42,NW,315,0.0,0.0,84,0.00,CLR,,0.00,WeatherDisplay:10.37,2013-10-25 03:09:00,
2013-10-24 22:14:00,36.3,31.9,27.42,NW,315,0.0,2.0,84,0.00,CLR,CLR,0.00,WeatherDisplay:10.37,2013-10-25 03:14:00,
2013-10-24 22:19:00,36.3,31.9,27.42,WNW,288,0.0,2.0,84,0.00,CLR,CLR,0.00,WeatherDisplay:10.37,2013-10-25 03:19:00,
2013-10-24 22:24:00,36.1,31.8,27.42,South,180,1.2,0.0,84,0.00,CLR,,0.00,WeatherDisplay:10.37,2013-10-25 03:24:00,
2013-10-24 22:29:00,36.0,31.6,27.42,South,180,1.2,0.0,84,0.00,CLR,,0.00,WeatherDisplay:10.37,2013-10-25 03:29:00,
2013-10-24 22:34:00,35.8,31.4,27.42,North,10,0.0,1.0,84,0.00,CLR,CLR,0.00,WeatherDisplay:10.37,2013-10-25 03:34:00,
2013-10-24 22:39:00,35.8,31.4,27.42,North,0,0.0,0.0,84,0.00,CLR,,0.00,WeatherDisplay:10.37,2013-10-25 03:39:00,
2013-10-24 22:44:00,35.6,31.2,27.42,North,3,0.0,0.0,84,0.00,CLR,CLR,0.00,WeatherDisplay:10.37,2013-10-25 03:44:00,
2013-10-24 22:49:00,35.6,31.5,27.43,South,180,0.0,0.0,85,0.00,CLR,,0.00,WeatherDisplay:10.37,2013-10-25 03:49:00,
2013-10-24 22:54:00,35.6,31.5,27.43,SW,225,1.2,0.0,85,0.00,CLR,,0.00,WeatherDisplay:10.37,2013-10-25 03:54:00,
2013-10-24 22:59:00,35.4,31.6,27.43,SW,225,0.0,0.0,86,0.00,CLR,,0.00,WeatherDisplay:10.37,2013-10-25 03:59:00,
2013-10-24 23:01:00,35.4,31.6,27.43,SW,225,0.0,0.0,86,0.00,CLR,,0.00,WeatherDisplay:10.37,2013-10-25 04:01:00,
2013-10-24 23:06:00,35.4,31.6,27.43,SW,225,0.0,0.0,86,0.00,CLR,,0.00,WeatherDisplay:10.37,2013-10-25 04:06:00,
2013-10-24 23:11:00,35.2,31.5,27.43,South,180,1.2,0.0,86,0.00,CLR,,0.00,WeatherDisplay:10.37,2013-10-25 04:11:00,
2013-10-24 23:16:00,35.1,31.3,27.43,South,180,1.2,0.0,86,0.00,CLR,,0.00,WeatherDisplay:10.37,2013-10-25 04:16:00,
2013-10-24 23:21:00,35.1,31.3,27.42,North,0,0.0,0.0,86,0.00,CLR,,0.00,WeatherDisplay:10.37,2013-10-25 04:21:00,
2013-10-24 23:26:00,34.9,31.1,27.43,North,0,0.0,0.0,86,0.00,CLR,,0.00,WeatherDisplay:10.37,2013-10-25 04:26:00,
2013-10-24 23:31:00,34.7,31.2,27.42,North,0,0.0,0.0,87,0.00,CLR,,0.00,WeatherDisplay:10.37,2013-10-25 04:31:00,
2013-10-24 23:36:00,34.9,31.4,27.42,NE,45,1.2,0.0,87,0.00,CLR,,0.00,WeatherDisplay:10.37,2013-10-25 04:36:00,
2013-10-24 23:41:00,34.7,31.2,27.42,SE,135,1.2,0.0,87,0.00,CLR,,0.00,WeatherDisplay:10.37,2013-10-25 04:41:00,
2013-10-24 23:46:00,34.5,31.0,27.42,SE,135,1.2,0.0,87,0.00,CLR,,0.00,WeatherDisplay:10.37,2013-10-25 04:46:00,
2013-10-24 23:51:00,34.5,31.0,27.42,South,180,1.2,1.2,87,0.00,CLR,,0.00,WeatherDisplay:10.37,2013-10-25 04:51:00,
2013-10-24 23:56:00,34.3,31.2,27.42,SE,135,2.3,2.3,88,0.00,CLR,,0.00,WeatherDisplay:10.37,2013-10-25 04:56:00,